WetterOnline ( https://www.wetteronline.de )

Wetter aktuell Garmisch-Partenkirchen

Aktuelles Wetter: Garmisch-Partenkirchen (719m)

6-stündlich | Neueste Meldungen
Ortszeit Temperatur Wetter
Di, 05.07. 14:00 20.7° C bewölkt
Di, 05.07. 8:00 15.1° C bedeckt
Di, 05.07. 2:00 14.6° C Regen
Mo, 04.07. 20:00 18.4° C Regen
Mo, 04.07. 14:00 22.4° C wolkig
Mo, 04.07. 8:00 16.3° C bedeckt
Mo, 04.07. 2:00 17.6° C bewölkt
So, 03.07. 20:00 26.0° C wolkenlos
Ortszeit Temperatur Wetter
Di, 05.07. 14:30 20.5° C bewölkt
Di, 05.07. 14:20 20.5° C bewölkt
Di, 05.07. 14:10 20.3° C bewölkt
Di, 05.07. 14:00 20.7° C bewölkt
Di, 05.07. 13:50 20.7° C bewölkt
Di, 05.07. 13:40 20.5° C bewölkt
Di, 05.07. 13:30 20.2° C bewölkt
Di, 05.07. 13:00 20.0° C bewölkt
Di, 05.07. 12:30 19.3° C bewölkt
Di, 05.07. 12:00 18.1° C bedeckt
Di, 05.07. 11:30 17.4° C bedeckt
Ortszeit Relative Feuchte Sichtweite
Di, 05.07. 14:00 56% >70 km
Di, 05.07. 8:00 93% 60 km
Di, 05.07. 2:00 96% >70 km
Mo, 04.07. 20:00 85% 15 km
Mo, 04.07. 14:00 63% >70 km
Mo, 04.07. 8:00 91% >70 km
Mo, 04.07. 2:00 80% 65 km
So, 03.07. 20:00 45% >70 km
Ortszeit Relative Feuchte Sichtweite
Di, 05.07. 14:30 59% >70 km
Di, 05.07. 14:20 59% -
Di, 05.07. 14:10 56% -
Di, 05.07. 14:00 56% >70 km
Di, 05.07. 13:50 56% -
Di, 05.07. 13:40 56% -
Di, 05.07. 13:30 57% >70 km
Di, 05.07. 13:00 64% >70 km
Di, 05.07. 12:30 72% >70 km
Di, 05.07. 12:00 79% 55 km
Di, 05.07. 11:30 87% >70 km
Ortszeit Niederschlagsmenge Niederschlagsart
Di, 05.07. 14:00 0.2 l/m2 in 6 Std. Regen
Di, 05.07. 8:00 5 l/m2 in 12 Std. Regen
Di, 05.07. 2:00 5 l/m2 in 6 Std. Regen
Mo, 04.07. 20:00 4 l/m2 in 12 Std. Regen
Mo, 04.07. 14:00 2 l/m2 in 6 Std. Regen
Mo, 04.07. 8:00 3 l/m2 in 12 Std. Regen
Mo, 04.07. 2:00 0.0 l/m2 in 6 Std. -
So, 03.07. 20:00 0.0 l/m2 in 12 Std. -
Ortszeit Niederschlagsmenge Niederschlagsart
Di, 05.07. 14:30 0.0 l/m2 in 1 Std. -
Di, 05.07. 14:20 keine Meldung -
Di, 05.07. 14:10 keine Meldung -
Di, 05.07. 14:00 0.0 l/m2 in 1 Std. Regen
Di, 05.07. 13:50 keine Meldung -
Di, 05.07. 13:40 keine Meldung -
Di, 05.07. 13:30 0.0 l/m2 in 1 Std. -
Di, 05.07. 13:00 0.1 l/m2 in 1 Std. Regen
Di, 05.07. 12:30 0.1 l/m2 in 1 Std. Schneeregen
Di, 05.07. 12:00 0.1 l/m2 in 1 Std. Regen
Di, 05.07. 11:30 0.1 l/m2 in 1 Std. Schneeregen
Ortszeit Stärke Spitze Richtung
km/h Bft. km/h Grad Sektor
Di, 05.07. 14:00 7 2 14 20° N
Di, 05.07. 8:00 4 1 7 230° SW
Di, 05.07. 2:00 4 1 40 180° S
Mo, 04.07. 20:00 14 3 32 260° W
Mo, 04.07. 14:00 4 1 14 40° NO
Mo, 04.07. 8:00 0 0 43 - -
Mo, 04.07. 2:00 4 1 11 30° NO
So, 03.07. 20:00 4 1 29 10° N
Ortszeit Stärke Spitze Richtung
km/h Bft. km/h Grad Sektor
Di, 05.07. 14:30 6 1 13 10° N
Di, 05.07. 14:20 6 1 - 10° N
Di, 05.07. 14:10 7 2 - 40° NO
Di, 05.07. 14:00 7 2 14 20° N
Di, 05.07. 13:50 7 2 - 20° N
Di, 05.07. 13:40 7 2 - 60° NO
Di, 05.07. 13:30 7 2 14 40° NO
Di, 05.07. 13:00 4 1 7 130° SO
Di, 05.07. 12:30 2 1 6 100° O
Di, 05.07. 12:00 0 0 7 - -
Di, 05.07. 11:30 2 1 6 230° SW
Ortszeit Untergrenze Bedeckung Gattung
total tief tief mittel hoch
Di, 05.07. 14:00 1800 m 7/8 7/8 - - -
Di, 05.07. 8:00 1500 m 8/8 8/8 - - -
Di, 05.07. 2:00 2100 m 8/8 8/8 - - -
Mo, 04.07. 20:00 810 m 7/8 7/8 - - -
Mo, 04.07. 14:00 6900 m 7/8 1/8 - - -
Mo, 04.07. 8:00 3000 m 8/8 8/8 - - -
Mo, 04.07. 2:00 2100 m 8/8 7/8 - - -
So, 03.07. 20:00 - 0/8 0/8 - - -
Ortszeit Bedeckungsgrad in Achtel und Wolkenuntergrenze
Di, 05.07. 14:30 3(1500m) 7(1800m) 7(2400m)
Di, 05.07. 14:20 3(1500m) 7(1800m) 7(2400m)
Di, 05.07. 14:10 7
Di, 05.07. 14:00 6(1800m) 7(2100m)
Di, 05.07. 13:50 6(1800m) 7(2100m)
Di, 05.07. 13:40 7
Di, 05.07. 13:30 1(1500m) 7(2400m) 7(3300m)
Di, 05.07. 13:00 5(1500m) 7(2100m)
Di, 05.07. 12:30 7(1800m) 8(3000m) 8(3900m)
Di, 05.07. 12:00 8(1800m)
Di, 05.07. 11:30 7(1800m) 8(2100m)
Ortszeit Luftdruck NN (hPa) Tendenz (hPa in 3 Std.)
Di, 05.07. 14:00 1020 - 0,3
Di, 05.07. 8:00 1020 + 0,2
Di, 05.07. 2:00 1020 + 0,1
Mo, 04.07. 20:00 1018 + 1,9
Mo, 04.07. 14:00 1017 - 1,1
Mo, 04.07. 8:00 1021 + 1,7
Mo, 04.07. 2:00 1019 + 1,0
So, 03.07. 20:00 1015 - 0,6
Ortszeit Luftdruck NN (hPa) Tendenz (hPa in 3 Std.)
Di, 05.07. 14:30 1020 - 0,4
Di, 05.07. 14:20 1020 keine Meldung
Di, 05.07. 14:10 1020 keine Meldung
Di, 05.07. 14:00 1020 - 0,3
Di, 05.07. 13:50 1020 keine Meldung
Di, 05.07. 13:40 1020 keine Meldung
Di, 05.07. 13:30 1020 - 0,2
Di, 05.07. 13:00 1020 + 0,2
Di, 05.07. 12:30 1020 + 0,6
Di, 05.07. 12:00 1021 + 0,7
Di, 05.07. 11:30 1021 + 1,0
Ortszeit Schneehöhe (cm)
Di, 05.07. 14:00 0
Di, 05.07. 8:00 0
Di, 05.07. 2:00 0
Mo, 04.07. 20:00 0
Mo, 04.07. 14:00 0
Mo, 04.07. 8:00 0
Mo, 04.07. 2:00 0
So, 03.07. 20:00 0
Ortszeit Schneehöhe (cm)
Di, 05.07. 14:30 0
Di, 05.07. 14:20 0
Di, 05.07. 14:10 0
Di, 05.07. 14:00 0
Di, 05.07. 13:50 0
Di, 05.07. 13:40 0
Di, 05.07. 13:30 0
Di, 05.07. 13:00 0
Di, 05.07. 12:30 0
Di, 05.07. 12:00 0
Di, 05.07. 11:30 0
Link zu dieser Seite / Seite empfehlen

Das Wetter in ...